User: anonymous   Login
Location: Unspecified
(0.0000°N, 0.0000°E)
Time: 02:11:51
(UTC+00:00)
Language:

deb Explorer IX - Orbit

View from above orbital plane
View from above orbital plane
View from above satellite
View from above satellite

Ground track
Ground track

The orbit data is extracted from the following two-line orbital elements,

1 00085U 61004C   15148.10323214  .00008463  00000-0  19665-2 0  9999
2 00085 038.7738 040.2031 0419660 131.2486 232.5207 14.12423970668837
Epoch (UTC): 28 May 2015 02:28:39
Eccentricity: 0.0419660
inclination: 38.7738°
perigee height: 548 km
apogee height: 1154 km
right ascension of ascending node: 40.2031°
argument of perigee: 131.2486°
revolutions per day: 14.12423970
mean anomaly at epoch: 232.5207°
orbit number at epoch: 66883

The dashed part of the orbit path shows where the satellite is in the earth's shadow,  

DLR